CW6770 Weather Reports


time (UTC)temp
C
wind
direction
speed
KPH
gust
KPH
rain 1hr
cm
rain 24hr
cm
rain mn
cm
humidity
%
barometer
mb
20260505153040 14 269 4.8 14.5 0.00 0.00 0.00 77 1012.4
20260505152526 13 0 1.6 14.5 0.00 0.00 0.00 78 1012.2
20260505152027 13 119 4.8 14.5 0.00 0.00 0.00 79 1012.2
20260505151545 12 94 1.6 14.5 0.00 0.00 0.00 79 1012.3
20260505151024 12 120 3.2 14.5 0.00 0.00 0.00 78 1012.2
20260505150527 12 91 3.2 19.3 0.00 0.00 0.00 78 1012.1
20260505140527 12 98 3.2 12.9 0.00 0.00 0.00 78 1012.1
20260505125028 12 169 3.2 12.9 0.00 0.00 0.00 79 1012.2
20260505124603 12 0 1.6 12.9 0.00 0.00 0.00 79 1012.1
20260505124103 11 0 1.6 16.1 0.00 0.00 0.00 79 1012.1
20260505123530 11 305 3.2 16.1 0.00 0.00 0.00 80 1012.2
20260505123054 11 327 1.6 12.9 0.00 0.00 0.00 80 1012.3
20260505122526 11 219 1.6 12.9 0.00 0.00 0.00 80 1012.2
20260505122029 11 232 1.6 12.9 0.00 0.00 0.00 80 1012.3
20260505121541 11 293 1.6 9.7 0.00 0.00 0.00 80 1012.1
20260505121030 11 346 1.6 11.3 0.00 0.00 0.00 80 1011.8
20260505120528 11 149 1.6 11.3 0.00 0.00 0.00 80 1011.9
20260505120047 11 269 1.6 14.5 0.00 0.00 0.00 80 1011.9
20260505115527 11 234 1.6 14.5 0.00 0.00 0.00 80 1011.7
20260505115027 11 219 1.6 12.9 0.00 0.00 0.00 80 1011.7
20260505114547 11 238 3.2 12.9 0.00 0.00 0.00 80 1011.7
20260505114027 11 0 1.6 8.0 0.00 0.00 0.00 80 1011.5
20260505113527 11 227 0.0 11.3 0.00 0.00 0.00 80 1011.3
20260505113041 11 130 0.0 11.3 0.00 0.00 0.00 80 1011.4
20260505112531 11 233 1.6 11.3 0.00 0.00 0.00 81 1011.4
20260505112028 11 0 0.0 8.0 0.00 0.00 0.00 81 1011.2
20260505111539 10 113 0.0 11.3 0.00 0.00 0.00 82 1011.2
20260505111027 10 0 0.0 11.3 0.00 0.00 0.00 82 1011.2
20260505110526 10 0 1.6 11.3 0.00 0.00 0.00 82 1011.2
20260505102031 8 0 0.0 4.8 0.00 0.00 0.00 85 1011.3
20260505101542 8 0 0.0 8.0 0.00 0.00 0.00 85 1011.1
20260505101027 8 0 0.0 8.0 0.00 0.00 0.00 85 1011.1
20260505100528 8 0 0.0 6.4 0.00 0.00 0.00 85 1011.1
20260505100041 7 0 0.0 8.0 0.00 0.00 0.00 85 1011.1
20260505095526 7 240 1.6 8.0 0.00 0.00 0.00 85 1011.1
20260505095028 7 240 0.0 11.3 0.00 0.00 0.00 85 1011.0
20260505094539 7 0 0.0 11.3 0.00 0.00 0.00 85 1010.9
20260505094026 7 242 0.0 8.0 0.00 0.00 0.00 85 1010.8
20260505093527 7 188 1.6 8.0 0.00 0.00 0.00 85 1010.9
20260505093037 7 0 0.0 6.4 0.00 0.00 0.00 85 1010.9
20260505092528 7 0 0.0 6.4 0.00 0.00 0.00 85 1010.7
20260505092027 7 0 0.0 6.4 0.00 0.00 0.00 84 1010.8
20260505091550 7 216 0.0 8.0 0.00 0.00 0.00 84 1010.8
20260505091028 7 177 0.0 8.0 0.00 0.00 0.00 84 1010.7
20260505090527 7 0 0.0 3.2 0.00 0.00 0.00 84 1010.9
20260505090037 7 0 0.0 1.6 0.00 0.00 0.00 83 1010.7
20260505085750 7 0 0.0 1.6 0.00 0.00 0.00 83 1010.8
20260505085029 7 0 0.0 1.6 0.00 0.00 0.00 83 1010.7
20260505084546 8 0 0.0 9.7 0.00 0.00 0.00 83 1010.7
20260505084026 8 188 0.0 9.7 0.00 0.00 0.00 83 1010.7
20260505083526 8 0 0.0 6.4 0.00 0.00 0.00 83 1010.8
20260505083112 8 0 0.0 6.4 0.00 0.00 0.00 83 1010.7
20260505082527 8 0 0.0 6.4 0.00 0.00 0.00 83 1010.7
20260505082027 8 224 0.0 1.6 0.00 0.00 0.00 83 1010.6
20260505081537 8 0 0.0 1.6 0.00 0.00 0.00 83 1010.4
20260505081028 8 0 0.0 1.6 0.00 0.00 0.00 83 1010.6
20260505080528 8 0 0.0 3.2 0.00 0.00 0.00 83 1010.7
20260505080038 8 0 0.0 3.2 0.00 0.00 0.00 83 1010.5
20260505075527 8 0 0.0 9.7 0.00 0.00 0.00 83 1010.6
20260505075032 8 0 0.0 11.3 0.00 0.00 0.00 83 1010.6
20260505074538 8 0 0.0 11.3 0.00 0.00 0.00 83 1010.4
20260505074027 8 0 0.0 4.8 0.00 0.00 0.00 83 1010.4
20260505073527 8 0 0.0 4.8 0.00 0.00 0.00 82 1010.6
20260505073051 8 0 0.0 3.2 0.00 0.00 0.00 82 1010.6
20260505072528 8 0 0.0 3.2 0.00 0.00 0.00 82 1010.5
20260505072027 8 0 0.0 3.2 0.00 0.00 0.00 82 1010.6
20260505071542 8 0 0.0 1.6 0.00 0.00 0.00 82 1010.6
20260505071027 8 0 0.0 4.8 0.00 0.00 0.00 82 1010.5
20260505070559 8 0 0.0 6.4 0.00 0.00 0.00 82 1010.4
20260505070529 8 0 0.0 6.4 0.00 0.00 0.00 82 1010.4
20260505070050 8 0 0.0 6.4 0.00 0.00 0.00 82 1010.3
20260505065526 8 223 0.0 6.4 0.00 0.00 0.00 82 1010.4
20260505065027 8 0 0.0 6.4 0.00 0.00 0.00 82 1010.4
20260505064537 8 0 0.0 4.8 0.00 0.00 0.00 82 1010.5
20260505064029 8 0 0.0 6.4 0.00 0.00 0.00 82 1010.3
20260505063527 8 0 0.0 6.4 0.00 0.00 0.00 82 1010.3
20260505063037 8 0 0.0 4.8 0.00 0.00 0.00 83 1010.2
20260505062527 8 267 0.0 9.7 0.00 0.00 0.00 83 1010.3
20260505062059 8 0 0.0 9.7 0.00 0.00 0.00 83 1010.2
20260505061544 8 183 0.0 8.0 0.00 0.00 0.00 84 1010.3
20260505061027 8 239 0.0 11.3 0.00 0.00 0.00 84 1010.2
20260505060528 8 0 0.0 11.3 0.00 0.00 0.00 85 1010.2
20260505060043 8 254 1.6 12.9 0.00 0.00 0.00 86 1010.2
20260505055527 8 0 0.0 12.9 0.00 0.00 0.00 86 1010.2
20260505055026 7 0 0.0 6.4 0.00 0.00 0.00 87 1010.2
20260505054541 7 0 0.0 4.8 0.00 0.00 0.00 86 1010.1
20260505054026 7 0 0.0 4.8 0.00 0.00 0.00 87 1010.2
20260505053529 7 0 0.0 6.4 0.00 0.00 0.00 87 1010.1
20260505053042 7 0 0.0 6.4 0.00 0.00 0.00 87 1010.0
20260505052527 7 0 0.0 4.8 0.00 0.00 0.00 87 1010.1
20260505052027 7 0 0.0 4.8 0.00 0.00 0.00 87 1010.1
20260505051537 6 219 0.0 0.0 0.00 0.00 0.00 87 1010.0
20260505051028 6 0 0.0 4.8 0.00 0.00 0.00 87 1010.1
20260505050527 6 0 0.0 4.8 0.00 0.00 0.00 87 1010.0
20260505041549 7 0 0.0 0.0 0.00 0.00 0.00 87 1010.1
20260505041025 7 0 0.0 0.0 0.00 0.00 0.00 87 1010.2
20260505040527 7 0 0.0 0.0 0.00 0.00 0.00 87 1010.1
20260505040048 7 0 0.0 0.0 0.00 0.00 0.00 87 1010.2
20260505035527 6 0 0.0 0.0 0.00 0.00 0.00 87 1010.2
20260505035026 6 0 0.0 0.0 0.00 0.00 0.00 87 1010.0
20260505034534 6 0 0.0 0.0 0.00 0.00 0.00 87 1010.0
20260505034027 6 0 0.0 0.0 0.00 0.00 0.00 86 1010.0
20260505033527 6 0 0.0 0.0 0.00 0.00 0.00 87 1010.1
20260505033041 6 0 0.0 0.0 0.00 0.00 0.00 87 1010.1
20260505032527 6 0 0.0 0.0 0.00 0.00 0.00 87 1010.1
20260505032026 6 0 0.0 0.0 0.00 0.00 0.00 86 1010.1
20260505031544 6 0 0.0 0.0 0.00 0.00 0.00 86 1010.1
20260505031026 6 0 0.0 0.0 0.00 0.00 0.00 86 1010.1
20260505030528 6 0 0.0 0.0 0.00 0.00 0.00 86 1010.0
20260505030038 6 0 0.0 0.0 0.00 0.00 0.00 86 1010.1
20260505025528 6 0 0.0 0.0 0.00 0.00 0.00 86 1010.0
20260505025027 6 0 0.0 0.0 0.00 0.00 0.00 86 1010.1
20260505024700 6 0 0.0 0.0 0.00 0.00 0.00 86 1010.1
20260505024538 6 0 0.0 0.0 0.00 0.00 0.00 86 1010.1
20260505024026 6 0 0.0 0.0 0.00 0.00 0.00 86 1010.3
20260505023527 6 0 0.0 0.0 0.00 0.00 0.00 85 1010.3
20260505023038 6 0 0.0 0.0 0.00 0.00 0.00 85 1010.3
20260505022527 6 0 0.0 0.0 0.00 0.00 0.00 85 1010.1
20260505022028 6 0 0.0 0.0 0.00 0.00 0.00 85 1010.0
20260505021542 6 0 0.0 0.0 0.00 0.00 0.00 85 1010.0
20260505021027 6 0 0.0 0.0 0.00 0.00 0.00 85 1010.0
20260505020527 6 0 0.0 0.0 0.00 0.00 0.00 84 1010.1
20260505020041 7 0 0.0 0.0 0.00 0.00 0.00 84 1010.1
20260505015527 7 0 0.0 0.0 0.00 0.00 0.00 84 1010.2
20260505015027 7 0 0.0 0.0 0.00 0.00 0.00 84 1010.0
20260505014559 7 0 0.0 0.0 0.00 0.00 0.00 84 1009.9
20260505014027 7 0 0.0 0.0 0.00 0.00 0.00 84 1010.0
20260505013527 7 0 0.0 0.0 0.00 0.00 0.00 83 1009.8
20260505013037 7 0 0.0 0.0 0.00 0.00 0.00 83 1009.8
20260505012527 7 0 0.0 0.0 0.00 0.00 0.00 83 1009.7
20260505012028 7 0 0.0 0.0 0.00 0.00 0.00 82 1009.7
20260505011535 7 0 0.0 0.0 0.00 0.00 0.00 82 1009.6
20260505011029 7 0 0.0 0.0 0.00 0.00 0.00 82 1009.5
20260505010527 7 0 0.0 3.2 0.00 0.00 0.00 82 1009.5
20260505010036 7 0 0.0 3.2 0.00 0.00 0.00 82 1009.4
20260505005527 7 0 0.0 3.2 0.00 0.00 0.00 82 1009.4
20260505005059 7 0 0.0 0.0 0.00 0.00 0.00 82 1009.5
20260505005027 7 0 0.0 0.0 0.00 0.00 0.00 82 1009.5
20260505004542 7 0 0.0 0.0 0.00 0.00 0.00 82 1009.4
20260505004025 7 0 0.0 0.0 0.00 0.00 0.00 81 1009.2
20260505003527 7 0 0.0 0.0 0.00 0.00 0.00 81 1009.2
20260505003038 8 0 0.0 0.0 0.00 0.00 0.00 81 1009.0
20260505002527 8 0 0.0 0.0 0.00 0.00 0.00 81 1009.1
20260505002028 8 0 0.0 0.0 0.00 0.00 0.00 80 1009.1
20260505001537 8 0 0.0 0.0 0.00 0.00 0.00 80 1009.0
20260505001027 8 0 0.0 0.0 0.00 0.00 0.00 79 1008.9
20260505000529 8 0 0.0 0.0 0.00 0.00 0.00 79 1008.8
20260505000048 8 0 0.0 0.0 0.00 0.00 0.00 78 1009.0
20260504235527 8 0 0.0 0.0 0.00 0.00 0.00 78 1008.8
20260504235028 8 0 0.0 1.6 0.00 0.00 0.00 78 1008.7
20260504234629 9 0 0.0 4.8 0.00 0.00 0.00 77 1008.7
20260504234547 9 0 0.0 4.8 0.00 0.00 0.00 77 1008.7
20260504234028 9 179 0.0 4.8 0.00 0.00 0.00 77 1008.5
20260504233528 9 0 0.0 4.8 0.00 0.00 0.00 77 1008.5
20260504233103 10 0 0.0 4.8 0.00 0.00 0.00 76 1008.2
20260504232526 10 0 0.0 4.8 0.00 0.00 0.00 76 1008.3
20260504232027 10 0 0.0 0.0 0.00 0.00 0.00 75 1008.2
20260504231543 11 0 0.0 0.0 0.00 0.00 0.00 74 1008.1
20260504231027 11 0 0.0 0.0 0.00 0.00 0.00 73 1008.1
20260504230527 12 0 0.0 0.0 0.00 0.00 0.00 73 1008.1
20260504230040 12 0 0.0 0.0 0.00 0.00 0.00 72 1008.1
20260504225527 12 0 0.0 0.0 0.00 0.00 0.00 71 1008.0
20260504225027 12 0 0.0 0.0 0.00 0.00 0.00 71 1008.0
20260504224540 13 0 0.0 0.0 0.00 0.00 0.00 70 1007.9
20260504224027 13 0 0.0 4.8 0.00 0.00 0.00 68 1007.8
20260504223527 13 0 0.0 4.8 0.00 0.00 0.00 67 1007.7
20260504223054 14 0 0.0 1.6 0.00 0.00 0.00 68 1007.7
20260504222756 15 0 0.0 9.7 0.00 0.00 0.00 66 1007.8
20260504222025 15 0 0.0 9.7 0.00 0.00 0.00 65 1007.9
20260504221542 15 0 0.0 9.7 0.00 0.00 0.00 64 1007.8
20260504221027 15 190 0.0 11.3 0.00 0.00 0.00 66 1008.0
20260504220528 15 0 0.0 11.3 0.00 0.00 0.00 67 1007.7
20260504220041 15 0 0.0 4.8 0.00 0.00 0.00 67 1007.6
20260504215528 15 0 0.0 4.8 0.00 0.00 0.00 65 1007.4
20260504215028 15 0 0.0 4.8 0.00 0.00 0.00 63 1007.2
20260504214538 16 0 0.0 3.2 0.00 0.00 0.00 63 1007.2
20260504214026 16 0 0.0 12.9 0.00 0.00 0.00 63 1007.3
20260504213530 16 0 3.2 12.9 0.00 0.00 0.00 63 1007.2
20260504213049 16 218 0.0 4.8 0.00 0.00 0.00 65 1007.3
20260504212528 15 218 0.0 11.3 0.00 0.00 0.00 64 1007.3
20260504212028 16 0 1.6 11.3 0.00 0.00 0.00 63 1007.3
20260504211537 16 0 1.6 11.3 0.00 0.00 0.00 62 1007.4
20260504211025 16 250 1.6 9.7 0.00 0.00 0.00 63 1007.4
20260504210525 16 0 1.6 11.3 0.00 0.00 0.00 63 1007.2
20260504210043 16 0 0.0 11.3 0.00 0.00 0.00 63 1007.2
20260504205528 16 161 0.0 12.9 0.00 0.00 0.00 63 1007.2
20260504205030 16 0 3.2 12.9 0.00 0.00 0.00 63 1007.3
20260504204545 16 210 0.0 11.3 0.00 0.00 0.00 62 1007.4
20260504204033 16 247 1.6 11.3 0.00 0.00 0.00 61 1007.3
20260504203531 16 182 3.2 11.3 0.00 0.00 0.00 63 1007.0
20260504203053 16 232 0.0 6.4 0.00 0.00 0.00 63 1007.2
20260504202530 16 190 0.0 16.1 0.00 0.00 0.00 65 1007.2
20260504202029 16 246 4.8 16.1 0.00 0.00 0.00 63 1007.2
20260504201538 16 189 1.6 8.0 0.00 0.00 0.00 64 1007.2
20260504201032 16 0 0.0 16.1 0.00 0.00 0.00 66 1007.2
20260504200527 16 288 3.2 16.1 0.00 0.00 0.00 66 1007.2
20260504200038 15 146 3.2 11.3 0.00 0.00 0.00 67 1007.2
20260504195529 15 0 1.6 8.0 0.00 0.03 0.00 66 1007.2
20260504195028 15 0 0.0 11.3 0.00 0.03 0.00 71 1007.4
20260504194543 15 189 0.0 11.3 0.00 0.03 0.00 71 1007.4
20260504194029 14 190 0.0 9.7 0.00 0.03 0.00 71 1007.3
20260504193529 14 228 1.6 9.7 0.00 0.03 0.00 72 1007.3
20260504193040 13 260 1.6 11.3 0.00 0.03 0.00 72 1007.4
20260504192528 13 232 3.2 11.3 0.00 0.03 0.00 73 1007.5
20260504192032 13 257 0.0 12.9 0.00 0.03 0.00 75 1007.6
20260504191538 12 213 1.6 12.9 0.00 0.03 0.00 75 1007.7
20260504191028 12 227 1.6 12.9 0.00 0.03 0.00 75 1007.8
20260504190531 12 0 0.0 12.9 0.00 0.03 0.00 77 1007.7
20260504190040 12 246 1.6 12.9 0.00 0.03 0.00 77 1007.8
20260504185530 11 170 1.6 12.9 0.00 0.08 0.00 76 1007.9
20260504185030 11 211 0.0 6.4 0.00 0.08 0.00 77 1008.1
20260504184539 11 227 1.6 11.3 0.00 0.08 0.00 76 1008.2
20260504184030 11 246 3.2 11.3 0.00 0.08 0.00 76 1008.3
20260504183528 11 211 1.6 6.4 0.00 0.08 0.00 75 1008.4
20260504183037 11 221 1.6 6.4 0.00 0.08 0.00 73 1008.3
20260504182530 11 221 0.0 6.4 0.00 0.08 0.00 72 1008.5
20260504182051 12 221 0.0 6.4 0.00 0.08 0.00 71 1008.4
20260504181545 12 0 0.0 14.5 0.00 0.08 0.00 69 1008.4
20260504181029 12 0 1.6 14.5 0.00 0.08 0.00 69 1008.3
20260504180531 12 0 4.8 14.5 0.00 0.08 0.00 67 1008.1
20260504180041 12 252 0.0 11.3 0.00 0.08 0.00 68 1008.1
20260504175527 12 249 1.6 11.3 0.00 0.23 0.00 68 1007.9
20260504175029 12 234 3.2 11.3 0.00 0.23 0.00 69 1008.0
20260504174541 12 241 3.2 11.3 0.00 0.23 0.00 69 1007.9
20260504174031 12 257 0.0 11.3 0.00 0.23 0.00 71 1007.8
20260504173527 11 256 1.6 11.3 0.00 0.23 0.00 72 1007.8
20260504173038 11 236 1.6 11.3 0.00 0.23 0.00 73 1007.8
20260504172527 11 239 0.0 11.3 0.00 0.23 0.00 74 1007.8
20260504172029 10 211 1.6 11.3 0.00 0.23 0.00 74 1007.6
20260504171545 10 0 0.0 17.7 0.00 0.23 0.00 74 1007.5
20260504171028 11 0 1.6 17.7 0.00 0.23 0.00 72 1007.6
20260504170527 11 197 1.6 17.7 0.00 0.23 0.00 69 1007.7